Torna al catalogo

STARLINK-30371

AttivoComunicazioniVLEO
NORAD 57735·PAYLOAD·🇺🇸 United States

Lanciato Sep 1, 2023 da Cape Canaveral Space Force Station

Loading…

Prossimi Passaggi (prossime 24 ore)

TLE

AggiornatoSource: CelesTrak SupGP

Epoca: Sep 14, 2026, 22:16 UTC

1 57735C 23131D   26257.92826389 -.00003407  00000+0 -12342-3 0  2573
2 57735  43.0022 191.2233 0001554 262.6116 329.7328 15.27578229    13

Traccia STARLINK-30371 in tempo reale con AllMySat

Download on the App Store